This demonstration page uses our WeatherBlox Daily Observations layout. Learn more.

Left ArrowRight Arrow

39.01783, -85.05884

Hourly Observations for October 24, 2020

Temp ( °F °C ) Dew Point ( °F °C ) Humidity (%) Winds ( mph kmh ) Pressure ( in mb ) Visibility ( mi km ) Precip ( " mm )
12:19 am 00:19 Cloudy 52 11.1 46 7.8 80 80 NNW 13 20 30.1 1019 10 16.0934 0 0
12:50 am 00:50 Cloudy with Drizzle 52 11 46 8 82 82 NNW 10 17 30.11 1020 6 9.65604 0.001 0.001
12:52 am 00:52 Cloudy with Drizzle 51 10.6 46 7.8 83 83 NNW 14 22 30.08 1019 7 11.26538 0.001 0.001
1:52 am 01:52 Cloudy 50 10 44 6.7 80 80 N 16 26 30.1 1019 10 16.0934 0.001 0.001
2:08 am 02:08 Cloudy 50 10 44 6.7 80 80 N 16 26 30.13 1020 10 16.0934 0 0
2:43 am 02:43 Cloudy 49 9.4 42 5.6 77 77 N 17 28 30.14 1021 10 16.0934 0 0
2:52 am 02:52 Cloudy 49 9.4 42 5.6 77 77 N 15 24 30.11 1020 10 16.0934 0 0
3:52 am 03:52 Cloudy 48 8.9 42 5.6 80 80 NNW 15 24 30.12 1020 10 16.0934 0 0
4:52 am 04:52 Cloudy 47 8.3 39 3.9 74 74 N 17 28 30.14 1021 10 16.0934 0 0
5:52 am 05:52 Cloudy 47 8.3 38 3.3 71 71 N 13 20 30.15 1021 10 16.0934 0 0
6:52 am 06:52 Cloudy 46 7.8 39 3.9 77 77 N 13 20 30.16 1021 10 16.0934 0 0
7:52 am 07:52 Mostly Cloudy 45 7.2 37 2.8 74 74 N 9 15 30.17 1022 10 16.0934 0 0
7:59 am 07:59 Partly Cloudy 45 7.2 37 2.8 74 74 N 12 19 30.2 1023 10 16.0934 0 0
8:52 am 08:52 Partly Cloudy 44 6.7 36 2.2 73 73 N 9 15 30.18 1022 10 16.0934 0 0
9:52 am 09:52 Mostly Cloudy 46 7.8 35 1.7 66 66 NNE 9 15 30.2 1023 10 16.0934 0 0
10:03 am 10:03 Mostly Cloudy 46 7.8 35 1.7 66 66 NNE 9 15 30.23 1024 10 16.0934 0 0
10:52 am 10:52 Mostly Cloudy 48 8.9 36 2.2 63 63 NNE 12 19 30.2 1023 10 16.0934 0 0
11:04 am 11:04 Mostly Cloudy 48 8.9 36 2.2 63 63 N 13 20 30.21 1023 10 16.0934 0 0
11:52 am 11:52 Mostly Cloudy 48 8.9 35 1.7 61 61 N 16 26 30.19 1022 10 16.0934 0 0
12:52 pm 12:52 Mostly Cloudy 50 10 35 1.7 57 57 NE 13 20 30.18 1022 10 16.0934 0 0
1:19 pm 13:19 Mostly Cloudy 48 8.9 35 1.7 61 61 N 13 20 30.19 1022 10 16.0934 0 0
1:52 pm 13:52 Mostly Cloudy 49 9.4 35 1.7 59 59 N 13 20 30.16 1021 10 16.0934 0 0
2:10 pm 14:10 Mostly Cloudy 50 10 35 1.7 57 57 N 12 19 30.16 1021 10 16.0934 0 0
2:52 pm 14:52 Mostly Cloudy 50 10 35 1.7 57 57 ENE 8 13 30.14 1021 10 16.0934 0 0
3:52 pm 15:52 Mostly Cloudy 51 10.6 35 1.7 54 54 NE 8 13 30.11 1020 10 16.0934 0 0
4:52 pm 16:52 Mostly Cloudy 51 10.6 35 1.7 54 54 NE 12 19 30.1 1019 10 16.0934 0 0
5:52 pm 17:52 Mostly Cloudy 51 10.6 35 1.7 54 54 NE 8 13 30.11 1020 10 16.0934 0 0
6:52 pm 18:52 Mostly Cloudy 50 10 36 2.2 59 59 NNE 9 15 30.11 1020 10 16.0934 0 0
7:52 pm 19:52 Mostly Cloudy 49 9.4 36 2.2 61 61 NNE 14 22 30.11 1020 10 16.0934 0 0
8:52 pm 20:52 Cloudy 48 8.9 35 1.7 61 61 NE 10 17 30.12 1020 10 16.0934 0 0
9:52 pm 21:52 Cloudy 48 8.9 36 2.2 63 63 NE 10 17 30.12 1020 10 16.0934 0 0
10:52 pm 22:52 Cloudy 48 8.9 36 2.2 63 63 NE 14 22 30.12 1020 10 16.0934 0 0
11:52 pm 23:52 Cloudy 48 8.9 36 2.2 63 63 ENE 14 22 30.12 1020 10 16.0934 0 0

Powered by AerisWeather